"2016-07-24 00:00:00",1835929,5.176,210.5,2.014,0.295,26.94,111.4815,28.7,29.69,15.63,0,111.5,12.97,29.56,172.5
"2016-07-24 00:00:30",1835930,4.685,213,0.998,0.146,26.9,111.4815,28.7,29.69,15.25,0,111.5,12.97,29.56,175.0
"2016-07-24 00:01:00",1835931,4.799,212.6,2.372,0.207,26.89,111.4815,28.7,29.68,15.73,0,111.5,12.98,29.56,174.6
"2016-07-24 00:01:30",1835932,5.322,202.8,1.737,0.205,27.12,111.4815,28.7,29.67,14.45,0,111.5,12.98,29.56,164.8
"2016-07-24 00:02:00",1835933,5.231,202,0.978,0.124,27.05,111.4815,28.7,29.67,14.24,0,111.5,12.98,29.56,164.0
"2016-07-24 00:02:30",1835934,4.877,202.2,2.598,0.207,27.04,111.4815,28.7,29.66,14.48,0,111.5,12.98,29.56,164.2
"2016-07-24 00:03:00",1835935,4.524,200.3,2.492,0.122,27,111.475,28.69,29.66,14.49,0,111.5,12.98,29.54,162.3
"2016-07-24 00:03:30",1835936,4.852,197,1.758,0.194,27.05,111.4646,28.66,29.67,14.44,0,111.5,12.98,29.51,159.0
"2016-07-24 00:04:00",1835937,4.572,199,1.994,0.291,26.98,111.4565,28.64,29.66,14.39,0,111.5,12.98,29.49,161.0
"2016-07-24 00:04:30",1835938,4.269,201.1,1.074,0.077,26.98,111.452,28.63,29.65,14.33,0,111.5,12.98,29.48,163.1
"2016-07-24 00:05:00",1835939,4.048,200.9,1.907,0.096,27.04,111.4484,28.62,29.65,14.3,0,111.5,12.98,29.47,162.9
"2016-07-24 00:05:30",1835940,4.013,202.8,4.059,0.198,26.96,111.4478,28.62,29.63,14.43,0,111.5,12.98,29.47,164.8
"2016-07-24 00:06:00",1835941,4.031,203.6,3.158,0.124,27.01,111.4478,28.62,29.63,14.89,0,111.5,12.98,29.47,165.6
"2016-07-24 00:06:30",1835942,3.72,203.6,4.042,0.252,26.9,111.4478,28.62,29.62,14.47,0,111.5,12.98,29.47,165.6
"2016-07-24 00:07:00",1835943,3.325,217.7,4.597,0.187,26.93,111.4478,28.62,29.62,15.46,0,111.5,12.98,29.47,179.7
"2016-07-24 00:07:30",1835944,2.891,214.3,9.84,0.34,26.88,111.4478,28.62,29.62,16,0,111.5,12.98,29.47,176.3
"2016-07-24 00:08:00",1835945,3.45,197.7,1.759,0.085,27.07,111.4478,28.62,29.61,14.58,0,111.5,12.98,29.47,159.7
"2016-07-24 00:08:30",1835946,3.321,197.9,2.02,0.085,27.01,111.4478,28.62,29.61,14.43,0,111.5,12.98,29.47,159.9
"2016-07-24 00:09:00",1835947,3.134,197.8,1.192,0.07,26.97,111.4478,28.62,29.61,14.27,0,111.5,12.98,29.47,159.8
"2016-07-24 00:09:30",1835948,2.744,203.9,3,0.147,26.85,111.4478,28.62,29.61,14.32,0,111.5,12.98,29.47,165.9
"2016-07-24 00:10:00",1835949,3.025,201.2,1.263,0.114,26.96,111.4456,28.61,29.59,14.33,0,111.5,12.98,29.46,163.2
"2016-07-24 00:10:30",1835950,2.997,201.7,1.601,0.066,26.97,111.4433,28.61,29.59,14.26,0,111.5,12.98,29.46,163.7
"2016-07-24 00:11:00",1835951,2.917,199.8,1.479,0.07,27.03,111.4388,28.59,29.6,14.26,0,111.5,12.98,29.45,161.8
"2016-07-24 00:11:30",1835952,2.856,204.6,3.162,0.156,26.99,111.4357,28.59,29.61,14.2,0,111.5,12.98,29.44,166.6
"2016-07-24 00:12:00",1835953,2.949,208.3,0.884,0.175,26.96,111.4293,28.57,29.6,14.47,0,111.5,12.99,29.42,170.3
"2016-07-24 00:12:30",1835954,3.235,211.9,1.66,0.133,26.96,111.4256,28.56,29.59,14.28,0,111.5,12.99,29.41,173.9
"2016-07-24 00:13:00",1835955,3.151,217.3,2.84,0.104,26.97,111.424,28.56,29.59,14.21,0,111.5,12.98,29.41,179.3
"2016-07-24 00:13:30",1835956,2.785,220.4,4.989,0.181,26.94,111.4223,28.55,29.6,14.27,0,111.5,12.98,29.40,182.4
"2016-07-24 00:14:00",1835957,2.712,223.9,1.847,0.063,26.89,111.42,28.55,29.58,14.38,0,111.5,12.98,29.40,185.9
"2016-07-24 00:14:30",1835958,2.755,223.1,3.375,0.116,26.93,111.4195,28.54,29.58,14.49,0,111.5,12.98,29.40,185.1
"2016-07-24 00:15:00",1835959,2.913,228.2,3.436,0.138,26.9,111.4178,28.54,29.57,14.37,0,111.5,12.98,29.39,190.2
"2016-07-24 00:15:30",1835960,2.817,222.8,5.026,0.163,26.93,111.417,28.54,29.58,14.26,0,111.5,12.98,29.39,184.8
"2016-07-24 00:16:00",1835961,2.423,233.9,4.582,0.082,26.77,111.4144,28.53,29.58,15.04,0,111.5,12.98,29.38,195.9
"2016-07-24 00:16:30",1835962,2.605,241,3.568,0.221,26.9,111.415,28.53,29.59,15.19,0,111.5,12.98,29.38,203.0
"2016-07-24 00:17:00",1835963,3.046,247.7,3.106,0.098,26.93,111.4153,28.53,29.57,15.38,0,111.5,12.98,29.38,209.7
"2016-07-24 00:17:30",1835964,3.056,253.6,1.867,0.092,27.07,111.4154,28.53,29.58,15.31,0,111.5,12.98,29.38,215.6
"2016-07-24 00:18:00",1835965,2.777,261.6,2.877,0.142,26.93,111.4154,28.53,29.57,15.42,0,111.5,12.98,29.38,223.6
"2016-07-24 00:18:30",1835966,2.618,258.2,4.33,0.092,26.88,111.4148,28.53,29.57,15.68,0,111.5,12.98,29.38,220.2
"2016-07-24 00:19:00",1835967,2.335,268,5.453,0.205,26.89,111.4132,28.53,29.56,15.9,0,111.5,12.99,29.38,230.0
"2016-07-24 00:19:30",1835968,2.556,277.8,2.044,0.244,26.92,111.391,28.47,29.54,15.85,0,111.5,12.99,29.32,239.8
"2016-07-24 00:20:00",1835969,2.539,270.6,8.39,0.266,26.9,111.3836,28.45,29.5,16.04,0,111.5,12.99,29.30,232.6
"2016-07-24 00:20:30",1835970,2.52,278.2,13.06,0.238,26.8,111.3821,28.45,29.48,16.48,0,111.5,12.99,29.30,240.2
"2016-07-24 00:21:00",1835971,3.529,283.5,5.266,0.203,26.68,111.3571,28.38,29.43,16.92,0,111.5,12.99,29.23,245.5
"2016-07-24 00:21:30",1835972,3.653,271.4,7.606,0.208,26.71,111.3478,28.36,29.4,16.98,0,111.5,12.99,29.21,233.4
"2016-07-24 00:22:00",1835973,4.033,266.3,4.894,0.248,26.73,111.3496,28.36,29.36,17.01,0,111.5,12.99,29.21,228.3
"2016-07-24 00:22:30",1835974,3.75,261.7,4.164,0.215,26.71,111.349,28.36,29.36,17.01,0,111.5,12.99,29.21,223.7
"2016-07-24 00:23:00",1835975,3.303,264.2,4.33,0.252,26.73,111.3497,28.36,29.37,16.97,0,111.5,12.99,29.22,226.2
"2016-07-24 00:23:30",1835976,2.943,275,3.26,0.145,26.79,111.3516,28.37,29.35,16.98,0,111.5,12.99,29.22,237.0
"2016-07-24 00:24:00",1835977,3.157,285.3,6.546,0.189,26.78,111.3428,28.35,29.35,16.98,0,111.5,12.99,29.20,247.3
"2016-07-24 00:24:30",1835978,3.16,288.2,2.67,0.296,26.74,111.3402,28.34,29.35,16.99,0,111.5,12.99,29.19,250.2
"2016-07-24 00:25:00",1835979,3.244,289.1,5.49,0.171,26.75,111.3402,28.34,29.35,17.06,0,111.5,12.99,29.19,251.1
"2016-07-24 00:25:30",1835980,3.458,277.5,4.147,0.217,26.8,111.335,28.33,29.35,17.07,0,111.5,12.99,29.18,239.5
"2016-07-24 00:26:00",1835981,3.794,276.4,3.651,0.336,26.84,111.3311,28.32,29.33,17.02,0,111.5,12.99,29.17,238.4
"2016-07-24 00:26:30",1835982,3.1,269.3,9.74,0.275,26.85,111.3337,28.32,29.32,16.87,0,111.5,12.99,29.17,231.3
"2016-07-24 00:27:00",1835983,2.521,279.9,3.864,0.179,26.88,111.3359,28.33,29.33,16.91,0,111.5,12.99,29.18,241.9
"2016-07-24 00:27:30",1835984,1.873,271.9,8.65,0.173,26.86,111.3369,28.33,29.31,16.78,0,111.5,12.99,29.18,233.9
"2016-07-24 00:28:00",1835985,1.01,259,8.87,0.228,26.79,111.3391,28.34,29.31,16.78,0,111.5,12.99,29.19,221.0
"2016-07-24 00:28:30",1835986,1.016,279.1,16.54,0.136,26.93,111.3409,28.34,29.31,16.75,0,111.5,12.99,29.19,241.1
"2016-07-24 00:29:00",1835987,1.091,290.2,7.259,0.253,26.86,111.3407,28.34,29.31,16.78,0,111.5,12.99,29.19,252.2
"2016-07-24 00:29:30",1835988,1.163,277.8,6.192,0.149,26.74,111.3247,28.3,29.28,16.98,0,111.5,12.99,29.15,239.8
"2016-07-24 00:30:00",1835989,1.051,288.1,12.06,0.133,26.71,111.3087,28.26,29.28,17.1,0,111.5,12.98,29.11,250.1
"2016-07-24 00:30:30",1835990,0.892,295.8,12.81,0.27,26.69,111.3076,28.26,29.26,17.53,0,111.5,12.98,29.11,257.8
"2016-07-24 00:31:00",1835991,0.03,248.4,49.14,0.237,26.7,111.2944,28.22,29.24,17.77,0,111.5,12.98,29.07,210.4
"2016-07-24 00:31:30",1835992,-0.098,170.1,46.69,0.146,26.76,111.2745,28.17,29.2,18.09,0,111.5,12.98,29.02,132.1
"2016-07-24 00:32:00",1835993,-0.011,94.6,26.32,0.302,26.93,111.2764,28.18,29.19,18,0,111.4,12.98,29.03,56.6
"2016-07-24 00:32:30",1835994,0.223,121.5,19.13,0.297,26.74,111.2671,28.15,29.16,18.2,0,111.5,12.98,29.00,83.5
"2016-07-24 00:33:00",1835995,0.567,142.6,36.54,0.461,26.78,111.2426,28.09,29.15,18.2,0,111.5,12.98,28.94,104.6
"2016-07-24 00:33:30",1835996,0.461,117.6,42.5,0.507,26.85,111.2443,28.09,29.1,18.06,0,111.4,12.98,28.94,79.6
"2016-07-24 00:34:00",1835997,1.284,110.3,54.76,1.071,26.92,111.2458,28.1,29.08,18.08,0,111.4,12.98,28.95,72.3
"2016-07-24 00:34:30",1835998,2.049,100.4,8.51,1.263,27.09,111.2477,28.1,29.08,18.04,0,111.5,12.98,28.95,62.4
"2016-07-24 00:35:00",1835999,2.166,60.65,22.15,0.66,26.8,111.2487,28.1,29.07,18.83,0,111.4,12.98,28.95,22.7
"2016-07-24 00:35:30",1836000,2.376,90.9,26.36,1.43,26.57,111.2245,28.04,29.05,17.95,0,111.4,12.99,28.89,52.9
"2016-07-24 00:36:00",1836001,2.577,100.9,11.04,1.202,26.72,111.2147,28.02,29.04,17.93,0,111.4,12.99,28.87,62.9
"2016-07-24 00:36:30",1836002,3.679,58.51,8.98,1.113,26.65,111.1898,27.95,29,17.38,0,111.4,12.99,28.80,20.5
"2016-07-24 00:37:00",1836003,3.001,74.3,16.45,1.276,26.7,111.1806,27.93,28.97,16.61,0,111.4,12.99,28.78,36.3
"2016-07-24 00:37:30",1836004,4.28,59.75,4.275,0.398,26.6,111.1711,27.9,28.94,15.99,0,111.4,12.99,28.75,21.8
"2016-07-24 00:38:00",1836005,3.52,53.62,4.99,0.687,26.68,111.1544,27.86,28.91,16.24,0,111.4,12.99,28.71,15.6
"2016-07-24 00:38:30",1836006,3.871,54.03,2.921,0.468,26.68,111.1485,27.85,28.88,15.98,0,111.4,12.99,28.70,16.0
"2016-07-24 00:39:00",1836007,3.238,59.6,4.806,0.519,26.6,111.1449,27.84,28.85,15.72,0,111.4,12.99,28.69,21.6
"2016-07-24 00:39:30",1836008,3.464,54.93,5.394,0.474,26.68,111.1297,27.8,28.83,15.41,0,111.4,12.99,28.65,16.9
"2016-07-24 00:40:00",1836009,3.476,53.18,4.523,0.519,26.76,111.1151,27.76,28.82,14.9,0,111.4,12.99,28.61,15.2
"2016-07-24 00:40:30",1836010,1.597,60.08,16.49,0.804,26.65,111.1149,27.76,28.79,15.41,0,111.4,12.99,28.61,22.1
"2016-07-24 00:41:00",1836011,1.392,69.97,25.01,0.489,26.53,111.1076,27.74,28.77,15.82,0,111.4,12.99,28.59,32.0
"2016-07-24 00:41:30",1836012,2.063,53.38,7.346,0.378,26.44,111.0885,27.69,28.75,16.01,0,111.4,12.99,28.54,15.4
"2016-07-24 00:42:00",1836013,1.878,49.14,7.122,0.442,26.37,111.0812,27.67,28.73,16.08,0,111.4,13,28.52,11.1
"2016-07-24 00:42:30",1836014,1.332,66,16.58,0.72,26.18,111.0812,27.67,28.72,16.12,0,111.4,12.99,28.52,28.0
"2016-07-24 00:43:00",1836015,1.851,66.57,20.79,0.922,26.01,111.0812,27.67,28.69,16.46,0,111.4,12.99,28.52,28.6
"2016-07-24 00:43:30",1836016,2.451,55.68,14.14,0.96,25.98,111.0725,27.65,28.68,16.14,0,111.4,12.99,28.50,17.7
"2016-07-24 00:44:00",1836017,2.709,49.64,5.472,0.518,25.94,111.0517,27.6,28.66,15.69,0,111.4,12.99,28.45,11.6
"2016-07-24 00:44:30",1836018,1.251,65.61,19.68,0.521,25.96,111.0475,27.59,28.64,15.59,0,111.4,12.99,28.44,27.6
"2016-07-24 00:45:00",1836019,3.431,53,9.74,0.713,26.06,111.045,27.58,28.63,15.28,0,111.4,12.99,28.43,15.0
"2016-07-24 00:45:30",1836020,3.257,45.62,5.143,0.371,26.18,111.0242,27.53,28.59,14.93,0,111.4,12.99,28.38,7.6
"2016-07-24 00:46:00",1836021,4.086,52.73,3.461,0.55,26.24,111.0141,27.5,28.57,15,0,111.4,12.99,28.35,14.7
"2016-07-24 00:46:30",1836022,3.568,49.23,4.185,0.427,26.32,111.0138,27.5,28.56,15.05,0,111.4,12.99,28.35,11.2
"2016-07-24 00:47:00",1836023,3.297,46.85,2.834,0.364,26.26,111.0138,27.5,28.53,15.02,0,111.4,12.99,28.35,8.8
"2016-07-24 00:47:30",1836024,3.878,51.7,3.068,0.345,26.21,111.0099,27.49,28.51,15.08,0,111.4,13,28.34,13.7
"2016-07-24 00:48:00",1836025,4.704,52.48,2.42,0.625,26.05,110.9953,27.45,28.5,15.12,0,111.4,12.99,28.30,14.5
"2016-07-24 00:48:30",1836026,4.974,52.17,2.564,0.253,26.08,110.984,27.42,28.47,15.11,0,111.4,12.99,28.27,14.2
"2016-07-24 00:49:00",1836027,5.014,51.78,2.303,0.287,26.14,110.9801,27.41,28.46,14.92,0,111.4,12.99,28.26,13.8
"2016-07-24 00:49:30",1836028,4.957,51.7,2.194,0.292,26.22,110.9801,27.41,28.43,14.68,0,111.4,12.99,28.26,13.7
"2016-07-24 00:50:00",1836029,4.437,51.63,2.058,0.404,26.16,110.9801,27.41,28.45,14.7,0,111.4,12.99,28.26,13.6
"2016-07-24 00:50:30",1836030,3.611,50.26,2.381,0.408,26.16,110.9801,27.41,28.43,14.77,0,111.4,12.99,28.26,12.3
"2016-07-24 00:51:00",1836031,4.168,49.27,1.875,0.262,26.2,110.9801,27.41,28.43,14.75,0,111.4,12.99,28.26,11.3
"2016-07-24 00:51:30",1836032,4.169,47.37,2.052,0.295,26.24,110.9801,27.41,28.4,14.65,0,111.4,12.98,28.26,9.4
"2016-07-24 00:52:00",1836033,3.859,46.31,2.402,0.342,26.28,110.9801,27.41,28.41,14.67,0,111.4,12.98,28.26,8.3
"2016-07-24 00:52:30",1836034,3.078,45,4.585,0.363,26.31,110.9832,27.42,28.4,14.88,0,111.4,12.99,28.27,7.0
"2016-07-24 00:53:00",1836035,2.927,42.39,2.812,0.358,26.29,110.986,27.43,28.39,14.89,0,111.4,12.99,28.28,4.4
"2016-07-24 00:53:30",1836036,2.752,41.43,2.779,0.311,26.3,110.9916,27.44,28.39,15.03,0,111.4,12.99,28.29,3.4
"2016-07-24 00:54:00",1836037,2.45,40.55,5.517,0.253,26.25,110.9969,27.46,28.4,15.14,0,111.4,12.99,28.30,2.5
"2016-07-24 00:54:30",1836038,2.708,44.83,5.944,0.49,26.15,111.0065,27.48,28.42,15.23,0,111.4,12.99,28.33,6.8
"2016-07-24 00:55:00",1836039,2.162,42.7,3.048,0.302,26.2,111.0115,27.49,28.4,15.28,0,111.4,13,28.34,4.7
"2016-07-24 00:55:30",1836040,2.252,43.67,4.932,0.366,26.21,111.0129,27.5,28.41,15.33,0,111.4,13,28.35,5.7
"2016-07-24 00:56:00",1836041,2.698,45.17,7.055,0.499,26.27,111.0132,27.5,28.42,15.27,0,111.4,13,28.35,7.2
"2016-07-24 00:56:30",1836042,2.919,46.27,3.147,0.462,26.28,111.0132,27.5,28.42,15.39,0,111.4,12.99,28.35,8.3
"2016-07-24 00:57:00",1836043,2.848,40.57,3.343,0.357,26.32,111.0121,27.5,28.42,15.53,0,111.4,13,28.34,2.6
"2016-07-24 00:57:30",1836044,3.721,43.81,4.493,0.394,26.52,111.009,27.49,28.42,15.03,0,111.4,12.99,28.34,5.8
"2016-07-24 00:58:00",1836045,3.284,42.78,4.981,0.583,26.55,111.002,27.47,28.42,14.76,0,111.5,12.99,28.32,4.8
"2016-07-24 00:58:30",1836046,4.887,48.81,4.073,0.765,26.6,110.9927,27.45,28.42,14.59,0,111.5,12.99,28.29,10.8
"2016-07-24 00:59:00",1836047,4.101,50.2,7.073,0.865,26.45,110.9885,27.44,28.41,14.82,0,111.4,13,28.28,12.2
"2016-07-24 00:59:30",1836048,2.918,41.86,7.856,0.442,26.37,110.9865,27.43,28.4,15.21,0,111.4,12.99,28.28,3.9
"2016-07-24 01:00:00",1836049,2.096,50.39,9.2,0.724,26.3,110.9812,27.42,28.4,15.76,0,111.5,12.99,28.26,12.4
"2016-07-24 01:00:30",1836050,1.866,45.76,5.152,0.264,26.38,110.9801,27.41,28.39,15.27,0,111.4,12.99,28.26,7.8
"2016-07-24 01:01:00",1836051,1.856,47.27,12.13,0.483,26.21,110.9801,27.41,28.38,15.82,0,111.4,13,28.26,9.3
"2016-07-24 01:01:30",1836052,1.852,50.9,12.38,0.506,26.25,110.9793,27.41,28.37,16.05,0,111.5,13,28.26,12.9
"2016-07-24 01:02:00",1836053,2.754,49.56,9.72,0.709,26.25,110.9655,27.38,28.36,15.97,0,111.4,12.99,28.22,11.6
"2016-07-24 01:02:30",1836054,2.031,54.64,16.72,0.661,26.15,110.9543,27.35,28.36,16.41,0,111.4,12.99,28.19,16.6
"2016-07-24 01:03:00",1836055,1.168,42.27,12.73,0.823,26.12,110.947,27.33,28.34,16.92,0,111.4,12.99,28.18,4.3
"2016-07-24 01:03:30",1836056,1.24,49.69,21.55,1.137,26.16,110.9464,27.33,28.32,16.71,0,111.4,12.99,28.17,11.7
"2016-07-24 01:04:00",1836057,1.015,25.85,17.9,0.947,26.12,110.9453,27.32,28.31,16.51,0,111.4,12.99,28.17,347.9
"2016-07-24 01:04:30",1836058,1.149,62.22,11.13,0.583,26.23,110.9259,27.27,28.3,16.3,0,111.4,12.99,28.12,24.2
"2016-07-24 01:05:00",1836059,1.347,64.46,7.791,0.287,26.22,110.9156,27.25,28.27,16.37,0,111.4,12.98,28.09,26.5
"2016-07-24 01:05:30",1836060,1.101,49.65,13.95,0.352,26.2,110.9128,27.24,28.27,16.44,0,111.4,12.98,28.09,11.7
"2016-07-24 01:06:00",1836061,1.59,61.82,7.005,0.465,26.31,110.9128,27.24,28.26,16.13,0,111.4,12.98,28.09,23.8
"2016-07-24 01:06:30",1836062,2.485,56.64,10.19,0.558,26.39,110.9086,27.23,28.24,15.64,0,111.4,12.98,28.08,18.6
"2016-07-24 01:07:00",1836063,2.677,46.25,5.559,0.455,26.4,110.8996,27.21,28.22,15.24,0,111.4,12.98,28.05,8.2
"2016-07-24 01:07:30",1836064,2.143,45.6,8.43,0.357,26.31,110.89,27.18,28.21,15.52,0,111.4,12.98,28.03,7.6
"2016-07-24 01:08:00",1836065,2.033,54.99,8.31,0.4,26.24,110.885,27.17,28.19,16.07,0,111.4,12.98,28.02,17.0
"2016-07-24 01:08:30",1836066,2.15,44.17,7.79,0.531,26.3,110.8811,27.16,28.19,16.21,0,111.4,12.98,28.01,6.2
"2016-07-24 01:09:00",1836067,2.554,55.82,7.936,0.57,26.3,110.8791,27.15,28.18,16.26,0,111.4,12.98,28.00,17.8
"2016-07-24 01:09:30",1836068,3.649,53.5,4.671,0.512,26.46,110.8791,27.15,28.18,15.27,0,111.4,12.98,28.00,15.5
"2016-07-24 01:10:00",1836069,4.047,49.9,7.299,0.41,26.55,110.8791,27.15,28.17,14.7,0,111.4,12.98,28.00,11.9
"2016-07-24 01:10:30",1836070,4.225,51.18,4.581,0.271,26.6,110.8791,27.15,28.15,14.4,0,111.4,12.98,28.00,13.2
"2016-07-24 01:11:00",1836071,3.52,43.49,3.924,0.245,26.57,110.8791,27.15,28.14,14.2,0,111.4,12.99,28.00,5.5
"2016-07-24 01:11:30",1836072,3.597,47.1,3.594,0.26,26.62,110.8791,27.15,28.15,14.17,0,111.4,12.99,28.00,9.1
"2016-07-24 01:12:00",1836073,3.321,47.13,6.355,0.242,26.63,110.8791,27.15,28.14,14.15,0,111.4,12.99,28.00,9.1
"2016-07-24 01:12:30",1836074,2.745,44.25,5.994,0.371,26.6,110.8794,27.15,28.16,14.08,0,111.4,12.99,28.00,6.2
"2016-07-24 01:13:00",1836075,2.767,41.07,6.908,0.286,26.58,110.8847,27.17,28.15,14.06,0,111.4,12.99,28.02,3.1
"2016-07-24 01:13:30",1836076,2.653,36.22,4.848,0.296,26.52,110.8934,27.19,28.16,14.07,0,111.4,12.99,28.04,358.2
"2016-07-24 01:14:00",1836077,2.44,36.48,3.566,0.223,26.55,110.9086,27.23,28.18,14.07,0,111.4,13,28.08,358.5
"2016-07-24 01:14:30",1836078,2.784,40.89,4.336,0.371,26.56,110.9128,27.24,28.18,14.1,0,111.4,13,28.09,2.9
"2016-07-24 01:15:00",1836079,2.611,41.52,5.703,0.227,26.61,110.9128,27.24,28.18,14.05,0,111.4,13,28.09,3.5
"2016-07-24 01:15:30",1836080,2.666,41.56,5.609,0.317,26.6,110.9128,27.24,28.19,14.01,0,111.4,13,28.09,3.6
"2016-07-24 01:16:00",1836081,3.52,54.8,3.152,0.308,26.62,110.9128,27.24,28.21,13.99,0,111.4,13,28.09,16.8
"2016-07-24 01:16:30",1836082,3.526,57.77,4.704,0.266,26.6,110.9175,27.25,28.22,14.02,0,111.4,13,28.10,19.8
"2016-07-24 01:17:00",1836083,3.141,53.26,6.603,0.412,26.58,110.9243,27.27,28.23,14.02,0,111.4,13,28.12,15.3
"2016-07-24 01:17:30",1836084,1.936,49.69,6.087,0.34,26.39,110.9327,27.29,28.23,14.11,0,111.4,13,28.14,11.7
"2016-07-24 01:18:00",1836085,1.292,57.19,11.54,0.419,26.26,110.9442,27.32,28.25,14.3,0,111.4,13,28.17,19.2
"2016-07-24 01:18:30",1836086,1.175,59.37,11.57,0.441,26.28,110.9464,27.33,28.27,14.4,0,111.4,13,28.17,21.4
"2016-07-24 01:19:00",1836087,1.278,61.7,9.89,0.447,26.36,110.9468,27.33,28.28,13.95,0,111.4,13,28.18,23.7
"2016-07-24 01:19:30",1836088,1.074,60.96,8.1,0.245,26.39,110.9471,27.33,28.28,13.91,0,111.4,13,28.18,23.0
"2016-07-24 01:20:00",1836089,1.38,63.57,6.601,0.177,26.41,110.9468,27.33,28.28,13.81,0,111.4,13,28.18,25.6
"2016-07-24 01:20:30",1836090,1.597,59.42,10.25,0.263,26.43,110.9468,27.33,28.28,13.84,0,111.4,13,28.18,21.4
"2016-07-24 01:21:00",1836091,1.238,61.39,9.81,0.396,26.33,110.9477,27.33,28.28,13.89,0,111.4,13,28.18,23.4
"2016-07-24 01:21:30",1836092,1.219,40.18,14.06,0.485,26.09,110.9489,27.33,28.3,14.31,0,111.4,13,28.18,2.2
"2016-07-24 01:22:00",1836093,1.646,55.64,11.78,0.465,26.12,110.9517,27.34,28.32,14.47,0,111.4,13,28.19,17.6
"2016-07-24 01:22:30",1836094,1.718,47.43,11.97,0.534,26.13,110.9517,27.34,28.31,14.57,0,111.4,13,28.19,9.4
"2016-07-24 01:23:00",1836095,0.922,54.76,13.92,0.309,26.02,110.9448,27.32,28.3,14.88,0,111.4,13,28.17,16.8
"2016-07-24 01:23:30",1836096,1.364,57.81,11.71,0.445,26.05,110.9279,27.28,28.29,15.04,0,111.4,13,28.13,19.8
"2016-07-24 01:24:00",1836097,1.767,46.72,6.39,0.243,26.32,110.9212,27.26,28.28,14.63,0,111.4,13,28.11,8.7
"2016-07-24 01:24:30",1836098,1.781,37.7,5.246,0.329,26.59,110.9252,27.27,28.28,14.05,0,111.4,13,28.12,359.7
"2016-07-24 01:25:00",1836099,1.116,52.31,12.91,0.419,26.4,110.9277,27.28,28.26,14.09,0,111.4,13,28.13,14.3
"2016-07-24 01:25:30",1836100,0.847,61.93,8.38,0.358,26.44,110.9283,27.28,28.26,14.11,0,111.4,13,28.13,23.9
"2016-07-24 01:26:00",1836101,0.994,66.29,10.36,0.367,26.33,110.9305,27.29,28.24,14.14,0,111.4,13,28.13,28.3
"2016-07-24 01:26:30",1836102,0.679,68.51,25.07,0.337,26.16,110.9312,27.29,28.24,14.36,0,111.4,13,28.14,30.5
"2016-07-24 01:27:00",1836103,0.053,72.65,60.89,0.24,26.15,110.9295,27.28,28.23,14.34,0,111.4,13,28.13,34.7
"2016-07-24 01:27:30",1836104,-0.074,112.7,79.72,0.161,26.18,110.9184,27.26,28.23,14.34,0,111.4,13,28.10,74.7
"2016-07-24 01:28:00",1836105,1.22,5.493,9.26,0.575,26.15,110.9145,27.25,28.22,14.42,0,111.4,13,28.09,327.5
"2016-07-24 01:28:30",1836106,1.728,11.67,6.403,0.562,26.18,110.9128,27.24,28.23,14.38,0,111.4,13,28.09,333.7
"2016-07-24 01:29:00",1836107,2.504,12.8,3.601,0.443,26.11,110.9095,27.23,28.2,14.46,0,111.4,13,28.08,334.8
"2016-07-24 01:29:30",1836108,3.373,12.88,2.456,0.369,26.48,110.9079,27.23,28.21,14.69,0,111.4,13,28.08,334.9
"2016-07-24 01:30:00",1836109,3.108,11.04,3.179,0.411,26.45,110.9079,27.23,28.21,14.71,0,111.4,13,28.08,333.0
"2016-07-24 01:30:30",1836110,4.426,12.85,3.155,0.639,26.53,110.9071,27.23,28.19,15.45,0,111.4,13,28.07,334.9
"2016-07-24 01:31:00",1836111,4.41,14.64,3.827,0.437,26.49,110.908,27.23,28.21,15.36,0,111.4,13,28.08,336.6
"2016-07-24 01:31:30",1836112,4.9,11.21,3.066,0.351,26.53,110.9096,27.23,28.21,15.78,0,111.4,13,28.08,333.2
"2016-07-24 01:32:00",1836113,4.186,8.46,3.531,0.575,26.49,110.9111,27.24,28.2,15.92,0,111.4,13,28.08,330.5
"2016-07-24 01:32:30",1836114,4.672,10.85,3.494,0.444,26.47,110.9121,27.24,28.19,15.7,0,111.4,13,28.09,332.9
"2016-07-24 01:33:00",1836115,4.558,8.67,3.077,0.503,26.39,110.9143,27.24,28.19,15.48,0,111.4,13.01,28.09,330.7
"2016-07-24 01:33:30",1836116,4.805,10.39,7.157,0.84,26.47,110.9139,27.24,28.18,16.08,0,111.4,13.01,28.09,332.4
"2016-07-24 01:34:00",1836117,4.496,6.02,4.659,0.594,26.44,110.9158,27.25,28.18,16.1,0,111.4,13.01,28.10,328.0
"2016-07-24 01:34:30",1836118,4.728,3.152,3.163,0.637,26.42,110.9164,27.25,28.18,16.19,0,111.4,13.01,28.10,325.2
"2016-07-24 01:35:00",1836119,4.162,2.829,3.389,1.285,26.42,110.9164,27.25,28.19,16.26,0,111.4,13.01,28.10,324.8
"2016-07-24 01:35:30",1836120,3.61,2.656,4.616,0.691,26.44,110.9161,27.25,28.18,16.37,0,111.4,13.01,28.10,324.7
"2016-07-24 01:36:00",1836121,4.693,0.442,3.53,1.569,26.38,110.9164,27.25,28.16,16.42,0,111.4,13.01,28.10,322.4
"2016-07-24 01:36:30",1836122,8.93,356.3,2.636,2.251,26.32,110.9164,27.25,28.17,16.26,0,111.4,13,28.10,318.3
"2016-07-24 01:37:00",1836123,5.962,1.973,6.497,2.544,26.23,110.9162,27.25,28.18,16.58,0,111.4,13.01,28.10,324.0
"2016-07-24 01:37:30",1836124,6.787,359,0.686,1.001,26.21,110.9136,27.24,28.18,16.6,0,111.4,13.01,28.09,321.0
"2016-07-24 01:38:00",1836125,6.922,358.8,1.16,1.084,26.23,110.9058,27.22,28.17,16.63,0,111.4,13.01,28.07,320.8
"2016-07-24 01:38:30",1836126,6.424,359.4,2.021,1.076,26.2,110.896,27.2,28.17,16.46,0,111.4,13.01,28.04,321.4
"2016-07-24 01:39:00",1836127,9.15,357.5,1.062,1.215,26.15,110.8827,27.16,28.16,16.8,0,111.4,13.01,28.01,319.5
"2016-07-24 01:39:30",1836128,10.13,357.3,1.536,1.446,26.14,110.8827,27.16,28.15,16.88,0,111.4,13.01,28.01,319.3
"2016-07-24 01:40:00",1836129,6.545,359.2,1.418,1.399,26.5,110.8827,27.16,28.14,16.21,0,111.4,13,28.01,321.2
"2016-07-24 01:40:30",1836130,5.844,360,2.283,1.05,26.44,110.8813,27.16,28.13,16.06,0,111.4,13,28.01,322.0
"2016-07-24 01:41:00",1836131,10.52,357.1,1.236,1.255,26.29,110.8707,27.13,28.12,16.61,0,111.4,13,27.98,319.1
"2016-07-24 01:41:30",1836132,9.05,358.4,4.326,2.851,26.3,110.8569,27.1,28.11,16.84,0,111.4,13,27.94,320.4
"2016-07-24 01:42:00",1836133,5.999,359.9,2.909,1.525,26.24,110.8507,27.08,28.09,16.62,0,111.4,13,27.93,321.9
"2016-07-24 01:42:30",1836134,5.65,360,1.642,1.153,26.19,110.8491,27.08,28.09,16.33,0,111.4,13,27.92,322.0
"2016-07-24 01:43:00",1836135,5.749,0.425,2.562,1.633,26.12,110.8491,27.08,28.08,16.49,0,111.4,13,27.92,322.4
"2016-07-24 01:43:30",1836136,4.987,359.6,1.447,0.526,26.1,110.8491,27.08,28.08,16.68,0,111.4,13,27.92,321.6
"2016-07-24 01:44:00",1836137,5.201,359.3,1.547,0.776,26.33,110.8429,27.06,28.05,16.61,0,111.4,13,27.91,321.3
"2016-07-24 01:44:30",1836138,5.752,358.9,1.1,0.643,26.33,110.8238,27.01,28.04,16.43,0,111.3,13,27.86,320.9
"2016-07-24 01:45:00",1836139,4.461,1.395,4.573,0.59,26.24,110.8156,26.99,28.01,16.49,0,111.4,13,27.84,323.4
"2016-07-24 01:45:30",1836140,5.151,0.932,2.733,0.714,26.23,110.8154,26.99,28,16.79,0,111.4,13.01,27.84,322.9
"2016-07-24 01:46:00",1836141,6.076,359.7,2.416,0.854,26.07,110.8154,26.99,27.99,17.13,0,111.4,13.01,27.84,321.7
"2016-07-24 01:46:30",1836142,6.094,1.054,2.761,1.285,26.3,110.814,26.99,27.97,17.21,0,111.3,13.01,27.83,323.1
"2016-07-24 01:47:00",1836143,9.73,357.7,1.223,1.671,26.02,110.8078,26.97,27.98,17.33,0,111.4,13.01,27.82,319.7
"2016-07-24 01:47:30",1836144,11.38,357.3,0.879,1.32,26.22,110.8044,26.96,27.96,17.38,0,111.4,13.01,27.81,319.3
"2016-07-24 01:48:00",1836145,11.09,357.2,0.897,1.611,26.38,110.798,26.95,27.95,17.32,0,111.4,13.01,27.79,319.2